sat.trackr.live / text

‹ back to catalog

STARLINK-4369

NORAD 53191 · 2022-084C

PAYLOAD ACTIVE UNKNOWN

§ Identity

Operator
Country
US
Launch date
2022-07-22
Launch site
AFWTR
Launch vehicle
Mass (kg)
RCS (m²)

Purposes: comms

External: N2YO · Heavens-Above · Gunter

§ Orbital elements

Epoch: 2026-05-25T03:56:03.971040Z

Period
94.56 min
Inclination
97.6003°
Eccentricity
0.0001086
Mean motion
15.22831850 rev/d
Perigee alt
496.6 km
Apogee alt
498.1 km
Semi-major
6,875.4 km
B*
2.2881e-3
RAAN
205.9723°
Arg perigee
74.3377°
Mean anomaly
285.7979°
Rev number
21,084

§ Raw data

STARLINK-43691 53191U 22084C   26145.16393485  .00053812  00000+0  22881-2 0  99932 53191  97.6003 205.9723 0001086  74.3377 285.7979 15.22831850210847

JSON: /api/v1/satellites/53191 · /tle

For live sub-satellite position, see the globe view (requires WebGL).

§ Visibility from observer

Set your observer location to see the next 7 days of passes ≥ 10°. The values pass through the URL so the page stays shareable.

No JS? Fill the form by hand. The geolocation button needs JavaScript.